This is the latest recevied weather packets stored in our database for station/object SR2GKG-13. If no packets are shown the sender has not sent any weather packets the latest 10 day(s).
| Time | Temp. | Humidity | Pressure | Rain* | Wind** | Luminosity | Snow |
|---|---|---|---|---|---|---|---|
| 1777834453 | 20° C | 28% | 999.6 hPa | - | - | - | - |
| 1777833552 | 20.56° C | 26% | 999.6 hPa | - | - | - | - |
| 1777832652 | 21.11° C | 26% | 999.4 hPa | - | - | - | - |
| 1777831752 | 21.67° C | 26% | 999.4 hPa | - | - | - | - |
| 1777830852 | 22.22° C | 26% | 999.3 hPa | - | - | - | - |
| 1777829952 | 22.78° C | 25% | 999.3 hPa | - | - | - | - |
| 1777829052 | 23.89° C | 23% | 999.2 hPa | - | - | - | - |
| 1777828152 | 25° C | 22% | 999.2 hPa | - | - | - | - |
| 1777827252 | 25° C | 21% | 999.3 hPa | - | - | - | - |
| 1777826352 | 26.11° C | 20% | 999.3 hPa | - | - | - | - |
| 1777825452 | 26.11° C | 20% | 999.3 hPa | - | - | - | - |
| 1777824551 | 26.67° C | 20% | 999.5 hPa | - | - | - | - |
| 1777823651 | 27.22° C | 20% | 999.5 hPa | - | - | - | - |
| 1777822751 | 27.22° C | 19% | 999.5 hPa | - | - | - | - |
| 1777821851 | 27.78° C | 19% | 999.6 hPa | - | - | - | - |
| 1777820951 | 29.44° C | 18% | 999.8 hPa | - | - | - | - |
| 1777820051 | 28.89° C | 19% | 999.8 hPa | - | - | - | - |
| 1777819151 | 28.89° C | 18% | 999.9 hPa | - | - | - | - |
| 1777818251 | 28.89° C | 19% | 1000.1 hPa | - | - | - | - |
| 1777817351 | 30° C | 18% | 1000.2 hPa | - | - | - | - |
| 1777816450 | 29.44° C | 19% | 1000.5 hPa | - | - | - | - |
| 1777815550 | 30.56° C | 19% | 1000.5 hPa | - | - | - | - |
| 1777814650 | 29.44° C | 18% | 1000.9 hPa | - | - | - | - |
| 1777813750 | 29.44° C | 19% | 1000.9 hPa | - | - | - | - |
| 1777812850 | 28.89° C | 20% | 1001.1 hPa | - | - | - | - |
* Rain since midnight (hover to see other rain measurements)
** Current wind speed in m/s (hover to see current wind gust speed)